Theta_e
316 315 316 317 316 315 314 315 315 316 315 316 315 315 314 313 312 311 310 311 310 310 310 309 308 307 306 307 305 305 305 305 304 304 304 303 303 303 302 302 303 302 302 302 303 301 302 301 301 301 300 301 299 301 300 299 300 300 300 299 299 299 298 295 294 295 296 297 299 300 301 301 300 300 300 299 300 301 304 302 302 302 303 302 303
316 316 315 314 313 313 313 313 313 314 315 315 316 315 313 313 313 310 311 312 311 311 311 310 309 308 307 306 306 306 306 306 304 305 306 304 303 305 304 302 302 302 301 301 302 302 301 301 301 301 300 300 299 300 299 299 299 299 299 299 297 298 297 297 295 294 294 296 298 298 298 299 298 299 298 297 297 300 300 300 302 302 301 301 302
314 314 314 314 313 313 313 312 313 314 316 316 315 314 313 313 314 313 312 312 312 311 312 311 310 309 309 309 309 308 307 306 305 305 305 305 305 303 304 302 302 301 301 300 301 300 300 301 299 300 301 300 299 299 299 299 299 298 298 297 297 297 298 297 295 294 293 294 295 296 297 297 296 297 297 297 297 298 298 298 299 301 301 300 300
312 313 312 312 312 312 311 313 314 313 314 315 314 315 315 315 315 315 314 312 311 311 311 312 312 310 311 311 310 309 308 307 307 305 306 306 306 306 304 303 303 302 302 301 301 301 301 300 299 300 300 299 298 298 299 299 298 297 296 296 296 296 296 296 295 294 293 292 292 295 296 294 295 295 297 296 296 297 297 297 297 298 298 299 299
312 312 312 312 312 313 313 313 313 312 312 313 313 315 315 315 315 316 315 314 314 314 313 313 312 312 311 310 309 309 309 308 308 307 306 305 305 306 305 304 303 304 304 302 305 301 301 301 301 301 299 299 298 298 298 297 296 295 295 295 295 296 296 295 294 293 291 289 291 292 293 293 294 294 295 294 295 295 295 296 296 296 297 297 299
311 311 311 311 311 312 311 311 312 312 312 312 312 314 314 314 313 313 314 315 315 314 313 313 314 313 311 310 309 310 310 309 308 308 307 306 305 304 305 305 304 304 304 303 303 302 302 301 302 302 300 300 299 299 297 295 294 294 294 294 294 293 292 291 291 291 290 289 289 290 290 292 291 292 294 294 293 293 294 295 295 296 296 296 297
311 311 310 310 310 311 310 311 311 312 313 313 312 314 314 313 312 312 313 313 313 313 313 314 314 314 313 312 312 311 310 310 310 309 308 307 307 306 305 304 304 304 305 304 304 303 302 302 302 302 301 300 300 298 296 295 296 294 295 293 292 291 291 291 291 290 290 290 289 289 290 291 291 291 293 293 293 293 293 293 293 295 295 295 295
310 311 309 308 308 309 307 310 311 310 312 312 311 312 312 311 312 312 312 312 312 312 313 313 314 312 313 313 313 312 312 311 311 310 309 308 308 307 307 306 305 304 304 305 305 304 303 303 303 303 302 301 301 299 297 295 294 294 293 293 291 291 290 290 290 289 290 289 288 288 288 288 290 291 293 292 292 292 293 292 291 292 293 294 294
309 309 308 306 306 306 307 307 311 311 312 311 311 311 312 313 311 310 311 312 313 313 314 314 313 311 310 310 310 310 309 311 313 312 312 311 309 308 308 308 307 305 305 305 305 305 304 304 303 302 304 306 304 302 299 296 293 292 293 291 291 290 290 290 290 289 288 289 289 288 288 288 288 289 290 290 290 289 291 290 290 292 292 293 294
307 306 307 307 308 308 309 308 310 310 309 310 311 312 312 312 311 310 311 312 310 310 311 312 312 312 310 309 308 308 309 310 311 307 308 311 310 310 309 308 308 307 307 306 305 304 305 304 305 308 307 305 301 297 295 295 297 295 293 292 292 290 289 289 289 289 289 288 288 287 288 287 287 288 288 288 290 291 290 290 290 291 290 291 292
303 304 305 304 304 304 304 306 306 309 309 309 308 308 309 310 309 309 309 309 310 309 310 311 311 310 309 308 308 309 310 311 305 302 300 303 310 309 308 308 308 308 307 307 306 305 304 304 304 307 305 303 299 294 294 294 293 294 295 295 295 292 290 289 289 288 291 289 288 287 287 287 287 287 287 289 289 289 290 289 289 290 289 288 287
301 301 301 301 302 303 302 303 302 303 302 304 302 302 303 304 307 309 309 309 309 308 308 309 308 307 308 308 308 309 309 307 303 302 299 298 302 308 308 309 308 308 308 307 307 306 304 303 304 304 300 297 294 294 294 293 293 293 292 293 293 293 294 292 291 289 287 288 287 287 286 287 287 287 287 287 289 288 288 288 287 287 288 287 288
294 295 296 296 297 297 298 300 301 300 300 301 301 301 302 302 301 301 302 303 303 305 306 305 306 306 307 307 307 307 307 305 301 300 299 298 297 301 308 308 308 308 307 307 306 305 303 303 303 302 300 303 300 296 295 295 294 293 293 293 293 292 292 292 294 292 289 288 288 287 287 286 287 288 290 289 288 288 288 287 287 286 287 287 287
294 295 296 296 296 294 295 296 296 296 296 296 296 296 297 297 296 296 297 297 298 300 299 301 301 301 302 303 304 303 303 301 296 296 296 296 295 296 303 305 306 306 306 306 306 304 302 302 300 299 300 301 298 298 297 296 295 295 294 293 292 293 292 291 290 290 292 290 288 288 288 289 289 288 290 290 288 288 286 286 287 286 287 287 288
294 294 296 295 295 294 295 295 295 295 294 295 294 294 294 294 295 295 294 295 295 296 296 297 298 299 299 301 300 301 302 293 293 294 295 295 294 294 299 301 301 301 302 302 301 301 301 302 300 299 300 299 299 298 298 298 296 295 293 292 290 289 289 289 289 288 290 289 288 288 288 288 288 288 288 288 289 289 288 287 287 287 288 288 287
295 294 295 295 295 296 295 294 295 294 294 293 294 293 293 293 294 295 292 292 292 291 292 293 294 296 296 296 299 299 295 293 293 294 294 295 294 296 296 298 298 297 296 297 298 299 301 301 300 299 300 300 299 295 297 298 297 295 294 290 288 287 289 293 292 293 292 289 287 287 287 288 291 289 289 289 287 287 289 288 286 286 285 284 284
295 294 296 295 297 296 295 295 295 294 293 293 293 293 294 293 292 293 291 290 292 292 293 294 293 292 296 295 297 295 291 292 292 293 293 293 295 295 295 296 295 295 294 294 295 296 298 298 299 299 300 297 293 292 293 295 294 292 289 286 287 286 287 289 291 291 291 291 290 291 290 290 290 290 290 290 289 288 286 284 284 283 282 282 284
295 295 295 295 296 295 296 295 296 295 293 294 294 292 293 294 293 294 294 292 293 293 293 291 291 292 294 295 294 295 292 291 292 292 292 294 296 295 294 294 293 294 293 292 293 294 299 304 300 296 294 293 290 290 291 294 292 290 289 287 285 284 284 285 287 288 290 290 290 289 289 289 290 290 290 291 290 291 285 283 284 284 283 283 282
297 296 296 296 296 296 295 294 294 295 295 294 293 292 293 294 294 291 292 293 292 291 292 291 289 289 289 290 298 291 287 290 293 291 293 293 296 295 295 294 293 291 291 290 290 290 291 295 296 294 293 291 289 289 290 292 291 289 287 285 285 283 283 283 284 284 284 285 284 286 286 288 288 286 289 290 290 291 287 286 285 283 283 283 284
300 300 298 299 297 297 296 298 295 295 295 293 293 294 294 294 293 291 290 291 291 288 289 288 288 286 286 286 288 287 288 288 290 292 293 294 294 295 295 294 292 290 290 291 290 290 290 291 292 289 289 289 289 289 289 290 289 287 284 283 285 285 283 283 287 285 283 284 283 283 285 285 285 285 285 285 288 290 289 287 286 286 284 284 284
297 298 298 298 297 297 296 296 295 295 294 294 294 294 293 293 291 292 291 289 289 288 288 287 287 285 285 285 285 286 290 287 289 292 293 293 293 294 292 292 291 290 290 290 289 289 289 289 290 289 289 288 288 288 289 289 289 286 285 285 285 286 285 282 284 289 284 284 284 284 285 284 284 284 284 284 286 287 288 287 287 286 285 285 284
293 293 295 295 296 296 296 295 295 297 294 294 293 294 293 291 291 292 290 289 289 287 286 286 285 284 284 285 285 284 290 294 288 291 291 292 291 292 291 289 290 290 288 288 287 288 288 289 289 289 288 288 288 288 288 288 289 290 288 288 287 287 285 287 284 284 283 283 282 282 283 282 282 283 285 286 287 288 287 287 287 287 287 286 286
293 293 293 293 294 295 295 295 295 296 295 294 294 293 292 292 290 291 290 288 288 287 285 285 284 284 284 284 283 284 285 289 291 289 290 290 290 290 290 290 290 291 289 288 287 287 288 288 290 290 288 288 288 288 288 288 289 287 288 287 287 287 287 285 284 283 282 282 282 282 282 282 283 283 284 285 286 286 287 287 287 287 288 288 288
292 292 293 293 293 293 294 295 294 293 295 294 292 292 291 291 291 292 289 290 288 286 284 285 284 284 284 284 285 284 284 285 289 290 289 289 289 289 289 289 290 291 290 288 287 288 288 288 289 288 288 288 288 288 287 288 286 287 287 287 287 288 286 284 283 283 283 282 282 281 282 282 283 283 284 286 286 287 287 287 287 287 287 288 288
290 291 292 291 292 292 291 291 292 291 292 292 292 291 290 290 292 288 290 289 288 288 285 286 287 286 284 285 284 283 284 284 285 289 289 289 289 289 289 289 289 290 289 289 289 290 289 289 288 288 288 288 288 288 288 288 287 287 287 287 290 283 284 283 282 283 281 282 282 282 282 284 284 285 286 286 286 286 286 286 287 287 287 287 288
292 292 291 290 291 290 291 291 290 290 291 290 291 290 293 292 293 289 290 288 288 289 286 285 285 285 285 283 284 284 284 284 285 286 289 290 289 289 289 289 290 290 289 288 289 288 288 288 288 288 288 288 287 285 284 285 288 288 288 288 282 282 282 282 281 282 281 281 282 282 283 283 283 284 284 284 283 283 284 284 285 285 285 285 285
293 293 293 293 292 290 290 290 290 290 290 288 289 292 292 292 293 291 290 289 287 286 287 287 286 285 285 284 284 284 283 283 284 284 286 288 289 289 288 288 289 289 288 288 288 288 288 288 287 287 287 287 287 287 286 286 284 284 282 282 283 282 282 282 281 282 282 282 282 282 282 283 283 282 282 282 283 283 284 284 283 283 284 284 284
293 293 293 293 293 293 292 290 291 289 285 288 289 289 288 290 292 292 291 290 289 287 287 287 287 287 285 285 284 283 283 283 284 285 285 286 286 285 286 286 285 285 287 288 288 288 287 287 287 286 286 286 285 284 282 282 282 283 281 280 281 282 285 287 286 281 281 282 281 281 281 281 282 282 283 283 283 284 284 284 283 283 284 283 283
289 290 291 292 292 293 293 293 292 290 287 282 281 282 286 287 291 290 289 291 294 293 288 288 289 287 288 286 285 284 283 284 285 287 286 288 287 286 285 285 286 285 287 287 287 287 287 286 285 284 283 282 280 279 280 278 278 279 280 281 281 282 281 280 282 282 282 281 281 281 282 282 282 283 283 283 284 284 285 284 284 283 284 284 283
287 288 288 289 291 291 292 291 291 289 288 286 285 284 284 287 285 286 287 291 292 292 292 293 293 291 288 287 286 286 286 286 287 287 288 288 288 288 287 287 287 287 287 287 287 285 284 283 282 282 280 277 276 276 276 275 275 277 277 281 280 279 280 280 281 281 281 281 282 282 282 283 283 283 283 283 284 284 285 285 284 285 284 283 283
289 287 287 287 287 289 289 288 289 289 289 289 288 287 286 286 287 287 287 289 290 291 291 291 290 290 290 287 286 288 288 288 288 288 288 288 287 287 287 287 287 287 287 287 285 283 282 282 279 277 276 275 275 278 276 275 276 276 278 277 278 279 279 279 280 280 281 282 283 283 284 283 283 283 283 283 283 284 284 285 285 285 284 284 283
288 288 288 288 288 286 286 286 286 287 285 286 289 289 288 287 285 287 287 287 290 290 290 289 289 289 289 288 286 284 287 288 288 288 288 287 287 287 287 287 287 287 286 287 283 281 280 279 276 276 275 276 277 276 275 275 276 276 276 277 279 279 278 280 281 282 283 283 283 283 283 283 283 283 283 283 283 284 284 284 284 284 284 284 284
288 288 288 288 287 288 286 285 285 287 286 286 286 286 287 287 288 284 285 287 287 287 288 288 289 289 288 288 288 288 287 288 288 288 288 287 287 287 286 286 286 286 286 285 283 279 275 274 275 277 276 278 275 276 275 278 277 277 278 277 279 280 280 281 281 282 283 284 284 284 284 284 284 284 284 284 283 283 284 283 284 284 284 283 283
288 288 287 288 288 287 286 286 286 286 286 287 287 287 288 289 289 287 285 284 286 287 287 287 288 288 288 288 288 288 288 288 287 287 287 287 287 287 286 286 286 286 286 282 279 277 275 276 277 278 278 277 276 275 276 276 277 277 278 279 280 280 281 281 281 282 283 284 284 284 284 284 284 284 283 284 284 284 283 283 284 283 283 283 283
288 286 286 286 287 288 287 286 286 285 285 286 286 287 287 286 286 286 287 287 286 285 281 283 286 287 286 287 287 288 287 287 287 287 287 287 287 286 286 286 285 283 281 281 280 279 277 276 277 279 278 277 276 276 276 279 278 278 279 280 280 280 280 280 281 282 283 284 284 284 284 284 284 284 284 283 283 283 283 283 284 284 283 283 283
287 287 287 287 287 287 287 287 287 287 286 286 286 285 284 284 285 284 284 285 285 283 280 280 281 286 287 287 287 287 287 287 287 287 287 287 286 287 283 279 278 277 277 279 279 279 278 278 278 278 278 278 276 276 276 279 279 279 280 280 280 280 280 281 282 282 283 284 284 284 284 284 284 284 284 284 283 283 283 283 283 284 284 283 284
288 287 286 286 286 287 287 287 287 287 286 285 284 283 282 282 282 282 283 283 283 282 282 282 283 284 285 285 286 287 287 287 287 286 286 285 285 283 281 281 279 278 277 279 278 278 278 279 277 277 278 278 278 279 278 280 280 281 282 281 280 280 281 282 283 284 284 284 284 284 284 284 284 284 284 283 283 283 284 284 284 284 284 284 284
291 290 288 287 286 286 286 286 287 286 285 284 284 283 283 283 283 283 283 283 283 283 282 283 284 283 283 284 287 286 285 286 286 286 286 285 283 282 281 280 281 281 279 279 279 279 278 278 277 278 276 278 279 279 278 280 280 280 280 281 281 281 284 284 284 284 284 284 284 284 284 284 284 284 284 283 283 283 283 284 283 283 283 284 284
292 289 288 287 286 287 286 285 285 285 284 284 283 283 283 283 283 283 283 283 284 283 283 284 283 283 284 285 284 286 285 283 281 282 281 280 279 279 280 280 280 279 279 279 279 278 278 277 277 277 277 278 278 279 278 279 280 280 280 280 280 281 282 283 283 284 284 284 284 284 284 284 284 284 284 284 283 283 283 283 284 283 283 283 283
292 290 288 287 287 286 285 285 285 284 284 284 283 283 283 283 283 283 283 284 284 285 285 285 284 285 285 285 285 285 284 284 283 283 281 280 279 278 281 281 280 281 280 277 278 277 278 277 277 277 277 277 277 278 278 279 279 279 279 279 280 281 282 283 283 283 284 284 284 284 284 284 284 284 284 284 284 284 284 283 284 284 284 283 284
291 291 288 287 287 287 285 285 284 284 284 284 283 283 283 283 283 284 284 284 285 285 285 285 285 285 285 286 286 286 286 285 284 281 280 281 281 281 280 280 279 278 277 277 277 277 277 275 275 274 273 275 275 276 278 278 279 279 279 280 281 282 282 283 283 283 284 284 284 284 284 284 284 284 283 284 285 285 284 284 284 284 284 284 284
290 289 289 288 287 286 285 284 284 284 284 284 284 284 283 284 284 285 285 285 285 285 285 285 284 285 285 286 286 286 285 283 282 282 282 281 282 281 280 279 279 279 278 277 277 275 275 275 274 273 274 276 277 277 277 277 278 278 279 279 280 280 281 281 283 283 283 283 284 284 284 284 284 285 285 285 284 284 284 284 284 284 284 284 284
290 289 289 288 288 286 285 284 284 284 284 285 285 285 285 285 285 286 285 285 285 285 285 285 285 285 285 285 285 284 284 283 282 282 282 281 281 279 278 276 276 277 277 277 276 274 273 273 273 274 275 277 275 277 277 278 278 278 278 278 279 279 280 281 282 282 283 283 283 283 283 284 284 285 285 285 285 285 285 284 285 285 285 285 284
289 289 289 288 287 287 286 286 286 285 285 285 285 285 286 286 286 286 286 285 285 285 285 285 285 285 284 284 284 284 283 282 282 282 281 280 280 277 274 273 275 275 276 274 273 273 272 273 274 275 275 275 276 276 276 277 277 276 276 277 278 279 280 280 281 281 282 281 282 282 283 284 285 285 285 285 285 284 284 285 285 285 285 285 285
290 289 289 289 289 288 288 287 287 287 286 286 286 286 286 286 286 285 285 285 285 285 285 284 284 284 284 284 284 283 282 282 281 280 279 279 278 275 273 273 273 273 273 273 272 274 273 273 273 273 275 276 277 277 277 276 275 275 275 276 277 278 279 280 281 282 282 281 282 282 283 284 284 285 285 285 285 285 284 285 285 285 284 285 284
289 289 289 289 288 288 288 288 287 287 287 287 286 286 286 286 286 285 285 285 285 285 284 284 284 284 284 283 282 282 281 281 280 280 279 278 277 275 273 272 273 273 272 273 273 274 274 274 274 274 274 275 276 276 276 275 276 276 276 276 278 279 280 281 281 281 281 282 282 283 283 284 284 285 285 285 285 285 285 285 285 285 285 285 285
289 288 288 288 288 287 287 287 287 287 287 286 286 286 286 286 286 285 285 285 285 284 284 284 284 283 283 282 281 281 281 281 280 279 279 278 276 275 273 273 273 272 272 274 274 274 274 275 275 274 275 274 274 275 276 276 277 277 278 278 278 279 279 279 280 280 281 282 283 283 283 284 284 285 285 285 285 285 285 285 285 285 285 285 285
287 287 287 287 287 287 286 286 286 285 286 285 285 285 285 285 285 284 284 284 284 283 283 283 283 282 282 281 281 281 280 280 279 279 278 277 276 274 274 274 273 272 274 274 275 275 275 274 275 274 274 275 276 276 276 277 278 278 278 278 279 278 278 278 279 280 281 282 282 283 284 284 285 285 285 285 285 285 285 285 285 285 285 285 285
286 285 285 285 285 285 285 285 285 284 284 284 284 284 283 283 283 282 282 282 282 282 282 282 282 281 281 281 281 280 280 279 279 279 278 277 277 275 275 275 276 274 274 275 274 274 275 274 275 274 275 276 276 277 277 277 277 278 278 278 278 278 278 278 278 279 280 281 282 283 284 285 284 285 285 285 285 285 285 285 285 285 285 285 285
283 283 283 283 284 284 284 284 284 283 283 283 283 282 282 282 282 282 282 282 281 281 281 281 281 281 281 281 280 280 280 279 279 278 278 277 276 276 276 275 274 274 273 272 273 274 274 274 275 276 278 278 278 278 278 278 278 278 278 278 278 278 278 278 278 279 280 280 282 283 284 284 284 284 285 285 285 285 285 285 285 285 285 285 285
283 283 283 283 283 283 283 283 282 282 282 282 282 281 281 281 281 281 281 281 280 280 280 280 280 280 280 280 280 280 280 280 279 279 278 278 278 277 277 276 275 274 274 274 274 275 275 276 276 277 277 279 279 279 278 278 278 278 278 278 278 277 277 278 278 278 279 280 281 283 284 283 283 283 284 285 285 285 285 285 285 285 285 285 285
Wind_Speed
11 9 8 10 6 5 6 5 6 7 8 7 7 6 5 6 6 6 3 5 4 5 5 5 4 4 4 3 4 4 4 4 3 4 3 3 2 3 3 3 4 2 3 2 2 4 4 4 3 2 2 5 3 4 5 4 6 6 5 6 6 4 4 3 2 0 2 1 2 3 5 5 6 7 8 8 9 8 8 7 8 7 8 8 8
8 9 7 6 3 4 5 3 3 3 6 7 7 6 3 4 5 3 5 7 5 6 6 5 4 4 4 3 3 2 3 4 4 4 4 4 2 1 3 3 3 2 1 2 0 1 3 4 3 2 3 5 4 4 4 5 5 6 5 6 6 6 3 4 2 2 0 3 5 3 5 4 5 6 7 8 8 6 8 8 6 7 7 7 8
3 4 6 6 4 4 5 3 2 3 7 8 8 3 1 1 2 3 6 5 5 4 5 5 5 5 5 6 5 4 4 3 2 3 4 5 5 3 3 4 4 3 3 3 3 2 3 4 3 2 2 5 4 3 4 5 5 6 4 4 5 4 4 4 3 4 4 2 1 4 6 5 5 6 7 5 4 4 6 7 6 6 6 6 7
5 5 5 5 4 4 3 4 4 4 4 4 3 5 5 5 4 4 6 6 4 3 3 4 4 4 6 6 6 4 4 4 4 4 4 5 5 5 4 4 4 4 4 4 4 4 4 4 3 3 3 5 4 4 3 4 5 5 5 4 5 4 3 4 4 3 2 4 2 3 4 4 3 3 6 4 6 6 5 4 4 5 6 6 6
5 6 6 7 7 8 7 7 7 4 3 3 5 4 3 3 2 4 5 4 1 5 9 10 6 4 6 5 4 4 5 3 3 4 3 3 4 5 5 5 5 5 4 4 5 4 4 4 5 3 3 4 3 3 3 5 3 5 5 3 4 3 4 4 4 4 4 5 3 1 3 1 2 2 6 7 7 5 4 6 5 6 6 4 4
6 6 6 7 7 8 7 5 6 7 7 6 5 5 4 3 3 2 1 1 4 5 3 2 7 11 8 4 4 4 3 2 3 4 3 2 3 3 4 4 5 5 4 4 5 5 5 4 4 4 4 5 4 3 3 4 3 4 4 3 3 4 5 4 4 5 5 3 3 5 3 6 4 3 6 6 7 7 8 6 4 6 8 9 7
6 6 5 7 7 7 6 6 5 6 7 6 6 5 5 4 4 3 3 4 4 4 5 7 8 9 9 5 5 4 4 3 3 4 4 4 4 4 4 4 4 4 4 5 5 5 5 4 4 5 5 4 5 5 4 3 4 4 3 3 3 5 5 4 4 5 4 4 2 2 3 2 3 5 4 4 3 4 8 10 9 5 6 8 10
4 5 6 5 4 5 3 6 7 4 4 4 3 1 2 3 4 3 3 3 3 1 1 4 6 7 8 8 7 6 5 6 7 7 5 5 5 5 5 5 5 4 4 4 4 5 6 6 6 6 6 6 6 6 6 6 4 4 2 3 3 5 4 3 5 5 5 4 5 3 3 3 4 1 2 2 4 3 6 4 9 11 9 6 4
4 4 3 3 4 3 3 3 5 5 5 5 3 3 3 4 4 4 5 4 4 4 5 7 7 6 5 3 3 2 3 5 5 6 6 6 6 7 7 6 6 5 4 4 4 5 5 5 6 6 5 7 9 9 8 8 6 5 3 4 4 6 4 4 4 5 3 4 4 3 5 6 5 7 9 7 7 6 5 3 3 5 8 9 7
6 4 5 5 4 4 3 3 4 4 3 5 6 6 5 4 4 4 5 4 3 2 7 9 7 8 5 5 4 3 4 4 6 9 7 5 5 5 5 5 5 5 5 5 4 5 6 5 5 8 9 10 10 10 10 9 8 7 7 5 5 6 5 4 4 3 3 3 2 2 5 5 5 4 3 3 4 4 5 5 7 6 5 6 6
2 2 1 0 1 1 1 1 3 4 4 4 3 3 4 6 6 5 4 2 3 6 9 11 9 7 6 5 5 5 5 6 9 8 9 8 4 4 5 6 5 5 5 6 6 7 6 5 4 6 8 8 8 11 10 9 8 8 8 8 7 8 6 5 4 3 1 1 1 1 0 4 4 2 2 4 3 4 5 5 6 6 7 8 11
5 4 3 3 2 3 2 3 3 4 4 5 4 4 3 3 4 5 5 6 6 7 9 9 7 5 5 5 6 6 6 8 8 6 5 6 4 3 3 4 4 5 5 6 6 6 6 5 3 3 4 6 6 6 7 8 9 9 9 9 8 7 7 6 4 2 3 2 1 2 2 3 3 3 2 2 4 4 3 3 3 4 7 7 6
3 3 3 4 4 5 4 6 6 6 5 5 4 4 4 4 5 5 6 5 4 6 7 6 6 6 6 7 7 6 5 3 3 4 5 7 8 6 4 4 4 5 5 6 6 6 5 5 4 4 4 9 8 7 7 5 4 5 7 6 5 4 4 4 3 2 6 3 2 2 3 2 1 2 0 2 2 4 4 5 4 4 4 7 8
2 2 1 1 1 3 4 4 4 3 3 4 4 5 5 4 3 2 2 2 3 2 1 2 1 1 3 4 4 3 3 2 3 5 6 7 8 6 4 4 4 4 5 6 5 6 6 7 6 5 4 5 5 6 5 6 5 4 4 3 1 4 5 4 2 4 2 2 3 2 1 1 1 1 2 1 1 4 5 6 4 7 7 8 7
3 2 0 1 0 3 3 3 4 4 4 4 4 4 4 2 3 2 3 4 4 4 3 4 3 2 2 2 3 3 3 1 3 4 6 5 6 6 2 2 2 3 3 4 4 4 5 5 6 7 7 7 5 7 6 5 4 3 3 2 2 2 3 2 1 2 2 2 2 2 2 2 2 3 3 2 3 4 4 5 6 6 7 7 6
3 3 1 1 0 0 3 3 3 3 4 4 5 4 3 3 4 2 3 3 3 3 3 2 3 4 4 2 1 4 3 4 3 4 4 1 7 3 2 2 1 1 1 1 3 4 6 7 7 7 6 6 6 8 5 4 4 4 4 3 3 3 3 2 4 5 4 3 3 2 2 2 3 3 3 3 3 3 3 3 3 4 5 6 7
3 2 2 2 1 0 0 4 4 4 3 4 5 4 4 3 3 4 4 4 4 4 2 1 2 3 5 3 1 3 3 4 4 3 2 8 6 4 4 4 4 4 3 3 3 3 2 4 4 5 4 4 4 8 8 7 5 4 3 3 2 2 2 1 2 4 4 4 3 3 3 4 4 5 6 7 4 3 1 3 5 3 5 7 6
3 2 1 2 1 1 1 2 4 5 4 5 5 4 1 1 1 1 3 3 4 2 1 3 4 4 5 5 4 4 4 5 9 6 8 9 7 6 5 6 5 5 5 5 5 5 5 8 6 6 6 4 7 10 9 8 6 5 4 3 2 2 2 2 1 0 1 1 1 1 3 3 4 5 6 7 7 3 0 4 5 3 5 4 7
3 2 1 2 3 0 2 2 3 4 4 4 4 4 4 3 1 2 4 4 2 1 3 5 4 5 4 3 6 4 3 4 5 5 4 8 7 5 6 6 6 4 5 5 5 6 5 7 10 9 8 8 12 11 10 8 6 4 4 3 1 1 2 1 2 3 4 4 4 4 4 6 4 4 5 9 9 7 2 4 3 3 6 6 6
6 6 2 3 3 1 3 2 3 4 4 3 2 3 2 1 2 3 3 4 4 3 4 5 5 4 3 4 4 3 2 2 2 3 2 3 7 6 6 8 7 5 4 5 6 5 6 6 8 11 12 12 11 10 9 8 6 3 3 2 1 1 1 0 0 1 3 3 4 4 5 5 5 4 4 4 6 4 5 4 4 5 5 6 6
6 8 7 7 6 6 6 5 5 4 4 4 4 2 2 2 2 3 4 3 4 4 4 3 4 3 4 4 3 4 2 1 2 3 4 5 7 8 4 6 7 7 6 5 5 6 5 5 4 7 10 9 9 8 8 7 6 3 3 2 1 1 2 1 2 3 2 3 3 4 5 5 5 5 5 5 6 5 5 5 5 5 5 6 6
4 3 5 6 5 4 5 5 4 4 3 3 3 1 1 2 3 4 4 4 4 4 3 3 4 3 3 3 4 3 4 4 2 4 5 7 7 9 7 4 6 8 6 5 5 5 5 5 4 5 7 7 8 7 7 6 5 3 2 2 2 2 0 1 1 1 1 2 3 4 5 5 6 6 6 6 6 6 5 6 6 6 5 6 7
5 5 4 4 4 5 5 5 5 4 4 4 5 4 5 4 4 5 5 4 4 4 4 4 4 3 3 4 3 3 4 4 5 3 5 8 8 8 10 8 7 7 9 7 5 5 3 3 3 5 6 6 6 6 5 4 3 1 1 1 1 2 2 1 1 0 1 2 2 4 5 5 5 6 6 6 7 6 6 6 6 6 6 6 7
6 5 5 5 5 4 4 4 5 5 5 6 4 4 3 3 4 6 5 6 6 5 3 4 4 4 4 3 3 3 4 4 6 7 5 8 9 11 10 10 8 6 6 7 6 5 5 3 3 4 3 3 4 4 2 2 0 1 2 2 1 1 1 0 1 1 2 3 4 5 6 6 6 6 6 6 7 6 6 5 6 6 7 7 7
3 6 6 5 5 5 3 2 3 2 2 5 5 4 3 3 3 3 5 5 5 5 5 4 5 5 4 6 4 3 3 4 4 6 9 10 11 11 12 13 12 12 9 5 4 4 5 6 5 3 2 3 5 5 4 2 2 2 2 2 0 0 1 1 3 3 5 5 6 6 6 6 6 7 7 6 6 5 6 6 6 6 6 7 7
4 4 5 5 5 3 4 4 3 4 2 3 4 4 5 5 4 4 6 5 6 6 6 4 3 4 5 6 6 4 3 4 4 4 5 7 8 11 12 12 12 12 10 7 8 8 8 8 8 8 8 6 4 4 3 2 3 4 5 5 3 4 3 3 3 3 5 5 5 6 6 6 6 6 6 6 6 7 6 7 7 7 6 8 8
6 5 5 5 5 3 4 4 4 1 1 3 3 4 5 6 5 5 4 6 4 4 5 5 4 3 5 6 5 5 4 4 4 4 4 6 6 6 8 9 11 11 8 6 6 5 6 6 6 7 7 7 6 5 5 4 4 5 4 4 4 3 3 3 3 4 4 5 5 6 6 7 6 5 6 6 7 7 6 7 7 7 7 7 7
6 6 6 5 5 4 4 4 3 1 1 1 3 2 2 4 6 6 7 7 6 5 6 6 6 7 6 5 5 5 4 4 5 6 5 6 6 5 5 5 4 5 6 5 5 5 6 6 6 5 5 5 5 5 5 4 4 4 4 3 3 3 3 4 4 3 4 5 6 6 6 6 6 7 7 7 7 8 6 6 7 8 6 7 7
4 5 5 5 6 5 5 4 2 3 3 3 3 1 0 2 4 5 4 4 8 8 5 6 6 6 6 8 8 6 5 7 6 4 6 8 9 7 6 6 5 5 7 9 6 5 5 6 5 5 4 4 4 3 4 5 4 3 3 4 4 4 5 4 5 6 6 6 7 6 7 6 7 7 7 7 7 7 6 7 7 7 7 6 9
3 4 4 4 6 5 5 5 3 4 4 5 4 3 5 4 1 3 4 3 5 8 13 9 9 7 7 6 5 9 11 9 9 10 8 7 7 9 8 8 8 8 7 8 7 6 5 5 4 4 3 3 3 2 2 2 2 4 4 4 4 5 5 5 5 5 5 6 6 6 7 7 7 7 7 8 7 7 7 8 8 7 8 7 8
6 6 4 5 5 5 5 5 4 4 4 5 5 6 4 3 7 7 2 2 5 6 5 1 8 11 10 7 2 5 8 11 13 11 10 11 13 13 11 11 11 11 11 8 5 5 5 5 3 4 2 2 1 0 1 1 3 3 5 4 4 4 5 5 6 5 5 6 6 7 7 7 7 7 7 7 8 8 8 7 7 7 8 8 9
7 7 7 6 5 4 3 3 3 4 3 3 5 6 6 5 2 8 10 7 4 5 8 8 11 11 9 10 8 3 10 13 14 14 14 14 13 13 11 10 9 9 7 10 6 4 4 5 3 2 1 1 0 1 1 2 3 3 4 5 6 5 5 6 6 5 6 6 6 7 7 7 7 8 8 8 9 9 8 8 7 7 8 8 9
7 7 7 7 6 5 4 2 3 4 5 5 4 5 6 7 7 2 5 10 12 9 4 7 11 11 11 11 13 13 12 13 15 15 15 15 14 12 11 10 8 8 9 6 6 5 3 3 3 1 1 0 1 1 2 3 3 4 4 4 6 6 5 6 5 5 6 6 7 7 8 8 8 8 9 9 8 9 8 9 8 8 8 9 9
9 7 7 7 7 7 6 4 4 5 5 5 7 8 7 8 7 7 7 4 6 9 11 8 6 10 9 11 12 13 15 16 15 15 14 14 14 12 10 7 8 6 6 6 6 5 3 2 1 0 0 0 1 1 2 3 3 4 5 4 5 6 6 6 5 6 5 7 7 7 8 8 8 8 9 8 8 9 9 9 8 8 8 8 9
9 10 13 10 7 7 6 5 6 5 5 5 6 7 7 5 6 8 8 8 7 7 4 4 5 4 7 8 12 15 15 15 15 15 15 13 13 13 11 7 5 4 4 4 5 5 4 2 1 1 1 0 1 1 2 4 4 4 5 6 6 6 6 6 6 6 6 7 8 8 8 9 9 8 9 9 8 8 8 9 8 8 9 9 9
10 9 8 10 9 7 7 7 6 6 6 7 6 4 4 6 7 6 4 5 8 8 4 3 3 6 10 10 13 14 14 14 14 13 12 12 12 10 6 4 6 3 4 2 3 3 3 3 2 1 1 1 2 2 2 4 5 5 5 6 6 6 6 6 7 7 7 8 8 9 9 9 8 8 8 8 9 9 9 9 9 9 9 9 8
9 8 8 7 8 8 7 7 6 6 6 5 5 5 4 4 3 4 5 6 6 5 7 7 7 7 7 5 8 11 12 13 12 12 10 8 7 4 4 5 5 4 5 3 3 3 3 1 1 1 1 1 2 2 3 4 5 5 5 6 5 6 7 7 8 8 8 9 9 9 9 9 9 8 8 8 9 9 9 9 9 9 9 10 10
10 9 8 7 7 8 6 7 7 7 5 5 5 5 5 5 5 6 7 6 6 8 9 7 7 8 8 6 4 5 9 10 12 10 7 6 5 5 4 5 5 6 6 3 4 4 3 2 2 1 2 2 2 4 4 5 5 5 6 6 6 7 9 9 9 8 8 8 8 8 8 8 8 8 8 8 9 9 9 8 8 8 8 9 8
8 10 11 11 9 7 6 6 6 6 6 6 6 7 7 7 6 6 7 7 8 4 2 7 8 8 7 7 6 6 9 6 5 6 4 3 4 4 5 5 5 5 4 4 4 3 3 2 2 1 1 2 2 3 4 5 5 5 6 6 7 7 7 7 7 8 8 8 8 8 8 8 8 8 8 8 8 8 9 9 8 8 8 8 8
7 7 9 12 6 6 6 6 6 7 8 8 7 6 7 7 7 7 7 8 8 8 7 7 7 7 7 7 8 7 7 7 6 5 5 3 3 3 4 6 5 6 5 4 3 3 2 2 1 1 2 3 3 5 5 5 5 5 5 6 6 7 7 7 7 7 8 8 8 8 8 9 8 8 8 8 8 8 8 9 9 8 8 8 8
3 6 7 7 7 6 6 6 6 7 7 7 7 7 7 7 7 7 7 6 7 7 5 6 7 6 6 7 8 7 7 6 5 5 5 5 5 5 5 5 6 5 4 4 3 2 2 1 1 2 3 3 3 3 5 5 5 5 6 6 6 7 7 7 7 7 8 9 9 9 9 9 9 8 8 8 9 9 8 8 8 8 8 8 8
5 5 6 6 7 7 6 6 6 6 7 7 7 7 6 8 7 7 7 8 6 5 5 5 6 5 6 10 8 7 6 5 5 5 4 5 5 5 4 4 4 5 4 4 3 2 1 1 2 3 3 5 4 4 5 5 5 6 6 6 6 7 7 7 7 8 8 8 9 9 9 9 10 9 9 9 8 8 8 8 8 8 7 7 7
7 7 7 7 7 7 7 7 7 7 7 7 6 7 5 2 8 7 8 7 6 6 6 6 5 5 5 5 7 7 5 5 5 5 4 4 4 4 5 4 3 3 3 2 1 2 1 2 2 3 3 4 3 4 4 5 5 6 6 6 6 7 7 7 7 8 8 9 9 10 11 10 9 8 8 8 8 8 8 8 8 7 7 7 7
8 8 7 8 7 7 6 7 8 7 7 8 9 7 6 4 6 7 8 7 5 5 6 6 5 5 5 5 6 6 5 5 5 5 5 5 5 5 4 3 3 3 1 0 1 1 0 2 4 4 3 3 4 3 3 4 5 5 5 6 6 7 7 7 8 8 9 9 9 9 10 10 9 8 8 8 8 8 8 7 7 7 7 7 6
9 9 9 9 8 8 8 8 9 9 9 9 8 8 6 6 7 6 6 6 5 5 5 5 5 5 5 5 5 5 6 6 6 6 5 5 5 4 4 4 4 3 1 2 2 0 0 1 2 3 4 5 4 4 4 5 4 4 4 5 6 6 7 8 8 9 8 9 9 10 10 10 9 9 8 8 8 7 7 7 7 7 7 7 6
9 9 9 9 9 9 9 9 8 8 8 8 8 7 7 6 5 5 5 5 5 5 5 5 5 5 5 6 5 6 6 6 6 5 6 5 5 4 4 4 3 3 2 1 1 1 2 2 3 2 3 4 5 5 5 4 4 4 4 4 5 6 7 7 8 9 8 9 9 9 11 10 9 8 9 8 7 7 7 7 7 6 6 6 6
10 9 9 9 9 9 9 8 8 8 8 8 7 8 6 6 5 5 6 6 7 6 6 5 5 5 6 6 6 6 5 6 5 5 5 4 4 4 4 3 3 3 2 1 1 4 4 4 2 2 2 3 4 4 5 5 4 4 4 4 5 6 6 8 8 8 7 8 8 8 10 9 9 8 9 8 7 7 7 6 6 7 7 6 5
9 9 9 9 9 9 9 8 9 9 8 8 7 7 6 6 6 6 6 6 7 7 7 6 6 6 6 6 5 6 6 6 5 5 5 5 4 4 3 3 3 2 1 3 4 4 5 4 3 2 3 4 5 5 5 5 5 6 6 6 6 8 11 12 8 8 7 8 8 8 8 8 8 8 8 8 7 7 7 7 7 6 6 6 5
9 9 9 9 9 8 8 8 8 8 7 7 8 7 6 7 7 6 7 7 7 6 6 7 6 6 6 6 6 6 6 6 6 5 5 5 4 4 3 2 2 2 4 5 4 4 5 4 3 3 4 4 5 5 5 6 7 6 7 7 10 17 18 17 11 8 10 8 7 7 7 7 8 8 8 8 8 7 6 6 6 6 6 5 5
8 8 8 8 8 8 8 8 8 7 7 7 7 7 6 7 7 7 7 7 7 7 6 6 6 6 6 6 6 6 6 6 5 5 4 4 3 2 2 3 3 4 4 4 4 4 5 4 4 4 4 5 6 6 5 4 5 7 7 9 15 18 17 18 16 15 11 7 8 7 7 7 7 7 7 7 7 7 7 6 6 6 5 5 5
8 8 8 8 7 7 7 8 8 7 7 7 7 7 7 7 6 6 6 7 7 6 6 6 6 6 6 5 5 6 5 5 4 3 3 3 3 3 3 4 4 3 4 4 5 5 5 4 4 4 5 5 6 7 6 6 7 8 12 16 16 17 18 16 12 14 16 11 7 6 6 7 7 8 8 8 7 7 7 7 6 6 5 5 5
Wind_Direction
173 185 166 184 196 196 207 218 208 176 156 162 172 189 196 192 193 201 180 212 201 201 199 201 199 199 190 190 180 184 178 182 178 148 145 149 153 148 141 139 134 150 121 115 110 117 115 117 118 113 110 85 85 74 69 69 67 68 65 68 59 39 71 98 101 337 312 316 356 348 343 4 14 16 14 5 4 1 13 22 18 26 20 12 3
177 174 178 174 201 188 198 225 250 166 150 157 185 191 190 213 203 170 198 215 196 208 208 205 196 186 188 212 225 223 209 193 179 162 158 158 170 154 153 137 132 149 111 125 58 88 126 121 124 101 88 98 89 79 90 81 83 74 54 70 63 45 19 86 93 123 283 312 0 350 9 10 28 15 17 3 355 359 15 10 19 26 19 8 6
136 144 160 165 148 149 135 141 148 173 168 178 191 140 70 342 309 228 216 217 211 217 216 206 197 186 187 194 203 212 216 217 180 173 170 171 172 186 180 166 160 165 176 182 172 133 129 146 174 163 117 83 81 99 90 88 85 88 83 80 83 62 36 50 71 32 32 345 334 10 11 351 25 2 3 357 350 7 19 15 5 13 16 11 6
109 106 108 105 98 79 98 116 119 148 179 199 148 97 105 93 88 27 343 336 301 264 253 233 208 210 212 209 198 203 206 205 198 206 194 183 183 184 180 184 183 182 188 190 183 165 162 157 195 179 121 106 111 98 89 95 92 97 88 79 88 81 64 64 61 96 52 23 309 58 358 7 351 1 358 354 6 6 13 353 4 21 10 9 4
109 109 120 127 137 144 163 156 140 135 124 105 79 63 91 111 110 172 197 227 20 22 358 343 310 253 235 229 220 207 207 206 210 212 217 210 199 190 188 188 188 190 192 191 190 183 179 182 192 177 138 116 121 113 113 94 100 97 98 99 97 101 73 67 63 66 71 34 329 336 8 14 10 351 10 2 353 2 2 8 359 4 1 1 353
110 119 130 134 154 167 170 136 129 120 111 104 118 133 121 125 139 107 93 83 70 82 83 2 302 294 279 256 243 245 227 181 240 249 235 217 216 215 205 197 197 193 196 195 192 191 187 202 194 181 163 152 163 141 122 123 116 102 97 89 98 89 84 70 74 68 67 43 23 348 358 11 356 12 8 1 355 353 356 354 353 6 1 354 356
119 133 151 155 163 175 162 134 124 132 137 151 159 163 160 148 148 165 136 119 112 133 171 199 231 246 257 256 236 222 217 207 227 230 211 203 213 218 220 217 211 206 204 199 200 197 197 190 188 187 181 169 156 159 136 111 107 109 116 113 95 85 73 68 67 67 68 50 19 55 344 337 17 343 352 349 345 29 360 347 349 3 3 354 337
128 153 166 165 169 200 132 130 127 132 161 161 153 173 140 162 189 175 157 140 154 197 255 237 231 237 237 232 231 214 201 194 212 220 209 202 204 216 214 214 215 216 213 208 204 205 201 197 194 193 188 177 165 162 145 139 126 115 143 113 104 92 92 88 69 67 55 43 36 355 358 327 342 308 292 333 5 27 32 7 336 335 340 343 329
139 159 170 169 204 210 147 141 137 169 177 134 154 174 206 206 184 172 219 195 173 204 248 252 270 268 265 258 253 230 209 216 221 217 209 210 205 215 215 214 212 212 215 213 211 215 214 208 206 199 191 179 175 162 161 151 139 138 177 133 120 112 109 87 100 86 68 59 17 7 2 358 348 350 354 8 8 328 318 6 309 312 321 326 325
138 162 176 192 195 197 177 144 152 187 188 168 190 195 187 201 206 212 220 215 169 156 251 271 257 246 252 257 265 256 245 244 239 230 219 210 213 217 212 214 211 212 213 213 218 220 223 219 213 195 180 169 163 158 154 154 153 152 168 156 139 126 124 119 110 117 100 66 43 25 5 342 327 341 330 311 310 317 335 349 338 322 318 305 298
97 127 151 34 43 47 84 144 133 176 202 223 219 192 199 197 198 214 230 215 178 175 201 221 227 230 227 230 237 239 240 238 234 224 223 221 205 207 211 218 213 209 207 205 209 224 226 219 213 183 171 160 156 152 151 151 151 151 160 170 164 147 137 126 155 151 139 141 148 91 297 300 298 276 289 294 325 335 327 332 324 330 343 344 326
151 163 166 154 162 176 168 176 180 193 191 215 211 213 196 196 199 203 204 211 210 188 195 206 205 208 216 223 227 229 234 237 237 237 229 232 238 220 209 215 213 212 212 210 215 210 213 202 185 162 164 156 143 140 141 150 153 159 167 171 174 159 145 146 152 154 168 158 181 220 184 243 263 309 293 352 322 326 311 321 312 327 323 319 300
132 124 152 166 177 163 166 173 178 176 193 196 200 192 193 197 205 197 208 210 187 193 206 195 195 195 196 203 218 225 238 295 284 248 220 211 216 218 231 221 214 218 213 218 217 213 199 178 169 165 157 149 143 148 150 153 157 152 152 151 162 160 137 110 90 138 160 149 184 223 194 199 253 262 24 329 320 319 322 322 313 294 280 286 290
119 135 149 158 193 150 160 169 170 179 163 153 149 150 150 158 169 176 158 106 108 62 20 350 310 200 196 207 226 239 241 252 258 250 232 216 213 201 230 222 223 223 221 218 215 205 185 177 167 156 149 156 155 150 153 156 153 143 132 107 72 36 44 47 28 44 67 159 164 200 223 136 230 237 279 229 314 299 307 295 296 298 292 280 287
30 26 98 85 112 123 106 119 117 114 114 114 107 99 103 93 64 52 66 70 68 55 31 19 355 330 285 225 228 250 235 259 264 238 230 203 195 190 219 239 242 243 235 220 206 179 166 159 153 156 166 172 172 164 158 162 146 134 103 73 64 62 67 67 118 145 136 133 148 182 213 200 203 233 244 227 229 245 249 264 280 281 285 294 284
14 354 19 336 353 314 136 131 122 118 114 109 112 119 125 135 133 141 74 56 51 52 23 43 14 344 330 329 264 272 274 299 284 277 269 151 145 145 163 179 173 113 77 97 136 151 155 158 162 165 169 166 172 157 130 128 129 117 98 73 59 64 67 37 91 99 110 128 149 168 192 208 229 242 262 260 257 258 279 299 310 285 302 311 305
4 343 358 339 310 137 212 155 157 164 168 152 151 157 150 156 163 158 117 126 96 74 73 39 359 2 345 358 331 286 289 296 290 252 221 142 116 111 98 91 85 86 74 65 67 79 112 143 135 140 121 87 95 119 124 116 100 101 99 90 71 81 65 4 79 98 113 139 177 198 241 255 262 261 261 262 251 255 242 339 302 307 332 311 302
339 329 17 3 16 255 218 169 177 181 175 179 183 191 169 103 166 188 99 95 72 76 66 78 48 40 26 0 359 332 321 336 334 290 182 159 132 123 117 105 96 95 79 47 46 48 46 84 102 104 100 88 90 96 102 102 100 108 113 99 52 18 324 337 347 323 21 310 144 237 255 276 307 322 315 314 313 314 179 293 276 345 300 286 294
292 275 288 354 319 314 156 168 187 180 191 221 191 165 177 171 143 85 94 95 95 39 50 63 49 34 23 14 20 26 342 338 4 326 252 141 125 122 118 112 105 90 89 69 44 50 42 49 79 95 98 99 90 87 85 90 104 113 126 105 81 345 283 302 344 350 350 358 346 357 338 339 337 327 313 311 306 305 257 237 263 262 276 283 285
269 291 314 320 267 263 276 206 187 180 206 214 187 190 167 125 129 114 88 105 106 68 59 59 54 23 11 22 22 25 22 350 4 25 240 148 131 128 131 123 122 113 94 98 85 51 51 60 64 88 96 96 96 95 98 111 122 135 110 102 117 318 261 297 318 24 344 348 321 330 312 309 313 311 309 304 303 292 285 264 237 229 246 265 266
220 212 213 203 217 205 201 190 187 208 192 181 183 177 163 167 143 139 128 97 91 70 67 71 70 34 19 20 28 10 12 12 4 79 137 136 134 124 114 121 129 123 115 98 100 104 86 77 73 83 94 96 98 98 94 89 95 115 107 126 181 159 115 25 333 21 339 315 314 315 306 310 307 303 292 289 282 282 280 275 257 230 230 251 265
246 222 208 219 221 204 195 205 197 198 190 140 147 183 245 187 166 139 121 116 102 97 100 90 88 55 29 34 26 9 3 28 47 65 108 120 124 122 116 125 137 122 104 98 96 94 110 116 111 104 98 97 94 87 84 78 72 84 116 132 108 87 206 216 245 296 276 277 280 289 294 296 296 295 292 285 278 274 269 267 266 258 238 226 239
280 269 265 247 229 230 229 205 196 176 175 175 173 169 168 153 131 130 130 118 116 122 126 124 112 96 63 38 26 19 12 22 36 54 89 106 104 107 120 127 130 120 126 127 126 125 126 118 106 93 78 79 85 94 98 106 94 81 149 211 211 200 194 179 196 253 304 301 303 297 291 290 291 287 284 281 274 270 268 262 261 260 260 253 244
288 274 256 246 240 241 236 233 202 184 172 166 157 155 161 125 130 142 139 138 134 130 149 142 126 124 113 81 48 27 23 44 36 41 65 86 98 102 97 94 98 97 102 118 126 129 126 119 111 110 88 65 63 67 86 100 117 275 285 290 272 173 145 108 356 323 318 314 308 300 294 285 281 283 276 270 272 271 274 271 269 265 264 265 261
294 272 254 242 232 229 203 218 254 244 201 160 157 167 164 150 141 149 135 140 151 160 178 175 162 160 143 138 123 72 42 55 62 54 65 70 75 83 91 95 96 98 94 96 101 106 118 114 106 103 70 69 68 65 55 58 24 359 336 307 87 104 47 359 332 345 329 305 294 288 284 275 268 271 276 283 286 293 290 283 276 272 271 271 271
295 280 291 290 259 234 211 238 225 217 185 189 179 175 174 170 173 162 149 158 168 168 174 177 163 155 155 151 146 133 96 91 87 80 77 82 83 87 88 87 87 89 97 103 108 103 100 94 89 87 86 89 85 81 77 57 71 56 47 42 31 20 13 358 334 327 300 289 283 280 276 279 280 277 284 289 290 281 280 282 288 288 288 287 289
281 279 276 277 291 280 227 218 226 211 213 213 202 186 170 158 149 148 153 159 162 171 169 179 171 157 157 160 151 138 126 129 122 106 105 101 104 101 96 92 96 95 94 102 95 93 90 94 102 104 102 94 86 77 63 38 34 18 13 11 10 356 341 331 293 284 285 284 282 277 276 276 284 297 290 288 286 282 273 281 282 279 280 277 277
275 275 268 262 267 265 262 256 225 151 52 116 156 162 166 150 152 164 169 173 164 178 179 186 182 181 167 155 147 135 152 163 167 154 145 131 122 113 107 110 110 119 112 109 107 108 106 100 89 72 70 55 45 38 27 30 39 18 356 348 338 329 315 305 299 277 269 267 274 281 286 292 296 291 293 289 283 284 283 281 281 283 277 283 281
279 279 283 290 275 266 254 252 206 159 129 80 60 70 174 197 194 212 228 180 177 173 163 160 180 195 175 171 162 167 171 192 202 174 161 155 146 138 136 133 130 111 126 128 110 92 87 80 78 65 58 70 50 36 13 12 352 350 345 334 331 328 324 329 312 298 291 302 296 294 295 299 296 295 290 288 284 288 287 281 274 274 278 266 271
285 282 279 273 271 274 267 260 222 183 170 151 125 75 54 86 118 207 246 262 202 173 160 178 192 168 172 190 178 168 193 192 163 162 160 150 128 119 118 121 123 126 125 120 111 98 88 93 83 96 77 76 63 32 351 345 333 333 325 318 322 316 306 297 289 287 296 291 291 296 297 299 295 296 292 287 286 280 278 277 281 273 274 270 272
241 256 267 269 263 260 265 260 230 200 191 167 161 144 119 37 39 45 44 285 202 191 212 336 147 163 161 158 137 89 113 135 147 144 137 129 121 117 116 116 118 125 131 111 65 96 111 103 93 77 100 109 117 284 286 326 316 317 309 308 299 295 295 295 288 293 296 298 296 290 288 286 286 285 282 281 281 281 279 274 271 267 263 266 269
235 236 239 247 258 261 251 256 229 191 192 188 176 163 157 133 50 27 35 48 68 167 173 162 164 160 161 140 126 84 136 140 138 138 136 129 123 120 116 112 112 108 106 101 94 96 109 126 120 125 120 77 249 287 281 300 297 300 303 322 313 301 298 297 292 290 287 291 292 292 291 287 284 283 281 281 280 279 279 279 275 272 269 265 265
236 232 226 229 235 249 271 251 206 201 183 177 186 176 165 168 155 128 23 49 64 64 95 149 149 150 147 151 150 152 153 145 139 136 135 130 123 115 105 94 94 107 93 80 121 128 127 122 144 154 129 89 282 278 289 291 294 304 304 298 301 297 289 278 282 279 276 285 291 287 287 286 283 282 279 278 278 279 279 276 275 272 270 271 270
233 227 225 221 221 228 225 213 198 211 221 205 187 183 191 183 177 158 133 98 57 50 48 64 122 134 136 139 134 134 136 139 138 135 131 127 123 116 102 85 69 70 116 135 124 143 134 123 125 175 231 241 265 290 303 305 306 300 297 284 276 286 291 295 293 285 285 291 290 285 283 281 280 281 280 278 274 274 275 273 272 273 271 268 271
233 225 219 215 212 216 217 205 197 201 198 221 216 198 194 189 165 160 164 159 150 131 123 61 56 103 128 127 134 136 136 135 135 134 131 130 122 116 109 99 97 71 53 77 116 136 142 151 168 217 205 279 286 264 288 294 297 305 306 304 301 295 296 298 292 293 296 297 293 289 286 284 282 277 277 278 278 276 274 275 273 271 274 274 273
231 229 222 215 211 209 208 207 206 198 200 209 213 209 174 163 170 177 148 129 131 128 98 79 81 62 96 117 129 128 128 129 128 123 126 126 130 122 104 107 110 120 115 112 117 141 141 160 160 227 226 251 279 278 269 305 308 302 294 294 295 297 299 302 303 304 301 297 293 290 289 284 279 278 277 273 273 274 276 276 276 275 272 273 273
221 217 215 209 206 203 199 201 202 203 197 182 164 154 151 141 124 118 124 132 131 121 123 124 107 88 69 68 99 109 114 118 114 111 110 112 114 103 129 148 149 141 143 152 140 136 132 194 185 225 254 245 260 292 326 308 300 299 293 288 288 301 305 305 304 305 304 300 295 290 286 284 283 282 282 282 280 277 275 275 274 271 268 267 268
209 204 201 194 199 197 195 199 201 187 165 152 153 148 139 138 142 137 128 125 140 145 146 137 127 132 131 127 121 122 118 106 96 82 76 71 67 85 105 124 137 144 157 157 153 145 164 222 204 206 251 250 308 321 312 305 303 298 302 311 314 307 301 304 302 300 295 290 289 289 289 287 286 286 283 279 279 280 278 275 275 275 272 267 264
206 189 182 187 192 190 188 179 168 154 147 144 148 145 144 142 139 134 136 137 121 95 143 133 134 135 135 137 125 136 115 110 116 123 99 79 83 108 123 126 127 127 135 143 145 144 170 210 237 236 277 300 306 307 307 301 305 310 315 316 309 306 305 304 302 301 298 294 295 295 294 291 288 286 283 280 278 278 278 278 275 273 274 275 270
192 165 179 180 175 158 148 152 148 145 147 146 150 148 143 143 146 146 141 138 142 148 154 146 142 140 144 143 142 145 131 139 141 142 138 135 129 144 147 136 140 143 145 146 151 169 178 226 239 309 287 301 315 306 304 305 311 309 311 306 303 304 303 302 301 302 301 300 299 300 298 295 294 291 286 281 280 282 282 281 279 274 273 271 273
134 139 151 168 145 141 133 136 141 143 141 136 142 147 149 145 140 136 132 132 132 140 148 137 130 132 145 148 144 136 133 144 144 151 161 157 160 157 154 143 140 138 143 152 164 171 193 211 293 267 279 302 298 308 313 320 314 314 310 306 305 302 303 302 301 300 301 302 301 301 300 300 299 298 295 293 292 289 283 280 278 274 270 267 266
114 116 122 125 134 126 126 116 118 113 117 122 125 130 139 140 134 135 130 129 124 125 122 108 113 120 126 131 135 119 112 118 128 138 140 148 151 153 144 137 135 139 149 155 163 188 194 242 254 257 297 315 323 325 325 321 316 314 316 313 309 307 306 306 307 305 306 306 306 303 304 303 299 295 291 291 293 291 290 286 284 281 277 272 268
87 101 107 119 119 126 121 122 118 115 113 110 105 94 77 111 125 123 116 108 111 119 113 111 113 111 115 120 107 97 102 121 127 128 127 123 121 118 118 127 130 135 141 148 163 159 169 202 252 284 306 310 309 305 316 311 318 317 314 311 309 307 306 307 309 310 311 309 306 305 304 301 300 301 300 299 295 295 291 293 292 288 284 277 275
74 77 84 90 90 88 92 107 104 102 103 105 101 99 112 114 100 103 98 94 96 100 108 114 122 114 105 84 87 93 104 105 105 105 105 99 95 96 96 96 102 86 62 29 28 66 85 307 310 323 325 318 320 319 319 315 316 311 311 310 308 307 307 310 311 312 313 309 303 301 302 300 300 302 302 301 301 299 299 299 300 301 297 292 284
66 72 77 78 79 87 84 86 94 102 107 104 99 99 85 70 73 76 90 101 96 93 94 104 102 103 100 95 103 110 108 101 99 96 89 96 97 90 85 77 74 73 45 15 1 331 31 324 348 351 333 329 333 336 330 325 320 305 302 303 301 305 309 310 309 306 302 298 298 302 303 303 304 306 304 304 303 303 302 305 307 305 302 297 294
63 69 74 78 78 79 80 82 82 86 86 86 92 84 80 76 80 90 96 96 96 99 94 90 92 99 109 109 106 102 103 101 95 95 96 91 91 83 74 78 72 63 52 8 334 46 38 30 9 345 328 324 330 330 331 326 320 318 308 294 295 293 298 303 305 302 296 298 300 301 304 302 302 303 305 307 306 307 305 307 310 308 302 301 300
56 62 62 69 71 73 70 72 74 76 78 80 81 81 83 86 92 93 88 94 96 94 90 93 94 95 91 96 102 99 97 95 96 90 90 88 81 77 67 63 60 51 28 4 18 35 34 20 359 345 329 335 336 335 338 333 327 327 323 312 304 309 313 314 310 304 299 299 299 294 301 301 304 307 309 309 309 311 313 312 316 316 317 315 317
49 49 52 55 57 60 61 64 67 68 72 73 76 80 86 88 89 86 88 86 84 87 87 83 81 85 89 84 83 88 87 87 84 82 79 72 68 64 58 57 55 40 37 38 25 27 26 12 353 357 14 6 358 345 339 334 335 336 333 331 324 325 321 321 312 310 307 306 297 295 295 301 308 309 310 310 311 315 320 325 324 325 326 326 329
57 57 57 54 57 55 61 63 66 69 74 79 80 78 77 79 76 77 78 80 80 79 85 91 90 88 88 88 89 87 85 83 81 75 70 65 61 51 50 54 52 47 55 41 24 26 18 7 4 21 23 11 1 344 346 345 342 337 331 328 328 330 331 331 328 317 317 311 309 308 309 312 314 314 313 314 318 320 321 324 326 326 327 332 335
54 56 64 63 65 65 64 67 67 71 69 75 80 81 74 76 73 74 78 81 81 79 77 81 86 88 95 94 92 89 88 88 86 82 73 61 48 40 37 39 43 44 49 45 36 31 24 14 15 19 10 6 358 355 344 331 327 331 331 328 328 331 332 331 330 332 334 324 317 308 311 314 318 319 319 319 319 323 331 336 335 332 332 338 346
55 57 59 59 62 63 65 69 69 67 68 73 76 80 78 74 73 70 72 74 79 77 78 77 83 81 80 82 87 91 90 91 89 90 77 59 38 29 27 28 31 39 43 46 44 36 31 22 13 11 9 354 357 360 351 342 337 334 330 329 332 337 336 336 336 329 332 339 324 317 319 325 326 329 331 331 330 331 336 337 341 342 340 343 346